Wind_Speed
24 26 28 29 31 32 32 33 32 32 31 30 30 29 29 28 28 27 26 26 25 25 24 25 25 24 23 23 23 21 20 19 17 16 14 12 11 9 9 9 10 13 18
24 26 28 30 31 33 35 36 37 37 37 36 35 34 33 33 32 32 31 31 30 29 28 28 28 27 27 26 26 25 24 22 21 19 17 16 15 13 12 11 11 12 14
21 23 25 27 29 31 33 35 37 38 38 39 39 38 38 37 37 36 36 35 35 34 33 32 31 31 30 30 29 28 27 26 25 23 21 20 18 17 15 14 13 13 14
17 18 20 22 24 26 28 29 31 33 34 36 37 38 39 39 39 39 39 39 39 38 37 36 35 34 34 34 33 32 31 30 28 27 26 24 23 21 20 19 17 17 16
17 18 20 21 23 25 27 28 30 31 32 34 35 37 38 39 40 40 41 41 42 41 41 39 38 37 37 37 37 36 35 34 33 31 30 28 27 25 23 23 22 21 19
19 20 22 23 25 26 28 30 32 33 35 36 38 39 40 41 42 43 43 43 43 44 44 43 42 41 40 40 40 40 39 38 37 35 33 32 31 29 27 26 25 24 23
20 22 24 25 27 28 30 32 33 35 37 38 40 41 43 44 45 46 47 47 46 46 46 46 45 44 43 42 42 42 42 42 40 38 36 35 34 34 32 30 29 28 27
23 25 27 29 31 33 35 36 38 39 40 41 42 44 45 46 47 48 49 50 50 50 49 49 48 47 46 45 44 44 44 44 43 42 40 39 38 37 36 34 32 31 30
28 31 33 36 38 40 42 43 44 45 46 47 48 48 49 50 50 50 51 52 53 53 53 53 52 51 50 49 48 47 46 46 45 44 44 43 42 41 40 37 36 34 33
35 38 40 43 45 48 50 51 53 54 54 55 55 55 55 55 55 55 55 55 55 55 55 55 55 55 54 53 52 51 49 48 47 47 47 46 45 44 43 41 39 38 37
42 45 48 51 53 56 58 60 61 62 63 63 63 63 63 63 62 62 61 60 59 58 58 57 57 57 58 57 56 55 54 52 50 50 50 49 48 47 45 44 43 41 40
48 51 55 58 60 62 64 66 67 68 69 70 70 70 69 69 69 68 67 66 65 64 62 60 60 59 59 60 60 59 58 56 55 54 53 53 51 49 48 47 46 44 42
53 57 60 63 66 68 70 72 73 74 75 75 75 75 75 73 73 72 72 72 71 70 67 65 64 62 62 61 61 61 61 61 60 59 57 56 55 52 50 49 48 46 44
58 62 65 68 71 73 75 77 78 79 80 80 80 80 80 79 77 75 75 75 75 74 73 71 69 67 65 64 63 62 62 63 63 63 61 60 59 57 54 51 49 48 47
63 67 70 73 75 76 78 79 80 81 83 83 84 84 85 85 83 81 78 77 77 76 76 75 74 72 70 68 66 65 64 63 64 65 65 64 62 60 59 56 53 51 50
68 71 74 77 78 79 80 82 83 84 86 87 89 89 89 88 87 86 83 80 78 77 78 78 77 76 75 73 71 69 68 66 65 65 66 66 65 64 63 61 58 56 54
72 75 77 78 79 81 83 85 86 88 89 89 88 85 83 81 80 78 77 75 74 73 75 77 79 80 79 77 75 73 72 70 68 66 66 67 66 65 66 64 62 60 58
75 77 79 80 82 83 85 86 87 86 83 79 76 72 69 67 65 65 65 65 65 66 68 72 76 79 81 81 79 78 76 74 72 70 68 67 66 65 66 68 66 63 61
78 79 81 82 84 85 85 83 80 76 73 69 66 63 61 59 58 57 56 56 56 57 60 65 71 76 80 83 83 82 80 78 76 74 72 70 67 65 64 66 68 66 64
80 81 83 84 84 83 80 77 73 70 68 65 63 62 60 59 58 56 54 53 53 53 54 56 63 71 77 83 85 85 84 82 80 78 76 74 70 68 65 64 66 67 66
81 83 84 84 83 80 77 74 71 68 67 65 64 63 62 61 60 58 57 54 53 52 52 52 54 61 72 81 85 87 87 86 84 82 80 77 74 70 66 65 63 66 68
83 84 84 83 81 78 75 72 69 66 64 62 60 59 58 58 58 58 59 57 55 53 52 51 51 53 60 72 82 88 89 88 88 86 84 81 78 74 70 67 64 64 66
83 83 82 81 78 75 70 66 63 60 57 55 53 52 52 51 52 53 54 56 56 56 54 53 51 50 51 59 72 84 90 92 90 88 86 84 82 79 75 70 67 65 66
82 82 80 77 73 68 65 63 60 58 56 54 53 51 50 49 48 48 48 50 54 56 56 55 53 51 50 51 59 74 86 92 93 91 88 87 85 82 80 76 72 68 65
81 79 77 71 67 65 63 62 60 59 58 57 55 53 50 48 47 46 46 45 47 51 55 56 55 52 51 48 51 61 76 88 93 93 90 89 87 85 82 79 77 72 67
80 77 71 67 64 63 62 62 61 61 59 57 55 51 48 46 45 45 44 44 44 45 49 54 55 53 51 49 47 51 64 79 90 94 93 90 89 86 83 79 77 75 71
Wind_Direction
266 264 263 263 262 261 259 258 259 259 258 258 258 259 260 261 262 261 260 259 258 257 255 253 250 248 245 242 239 236 235 234 235 236 238 241 242 241 238 236 239 238 236
275 273 271 270 270 270 268 267 266 265 264 263 262 261 261 261 262 263 262 261 260 258 256 255 252 250 248 244 241 238 236 234 234 235 237 240 242 242 240 236 235 236 237
287 285 282 281 280 278 276 275 274 273 271 270 268 266 265 264 262 262 262 262 261 260 258 256 254 252 250 246 243 241 238 236 234 234 235 238 240 241 242 240 237 235 235
306 301 298 295 292 289 286 284 282 280 277 275 273 270 268 266 265 264 262 261 260 259 258 257 255 253 251 248 245 242 239 237 236 235 235 236 239 240 242 243 241 237 234
314 310 306 302 298 295 292 290 287 285 282 280 277 274 271 268 266 264 264 262 260 258 256 255 254 253 251 249 246 243 240 238 238 237 236 236 238 240 241 244 245 243 239
315 311 307 303 299 296 293 290 288 286 283 281 279 277 275 273 270 267 265 263 262 260 257 255 253 251 251 249 247 245 242 239 238 237 236 236 238 240 240 242 245 246 245
317 313 308 304 301 297 294 292 289 287 285 283 281 279 277 274 272 270 268 265 262 260 259 257 254 252 250 249 248 246 243 241 239 237 236 235 237 240 240 240 243 246 246
317 313 310 307 304 301 299 296 294 291 288 286 284 282 279 277 274 272 270 267 265 262 259 258 256 254 251 249 248 246 244 242 240 239 237 236 236 239 240 241 242 244 245
317 314 312 309 307 304 302 300 297 295 293 290 288 285 282 280 277 275 272 269 267 264 261 258 255 255 254 251 249 247 245 243 241 239 238 237 237 238 240 241 242 243 244
317 315 313 311 308 306 304 301 299 296 293 291 288 286 284 281 279 277 274 271 268 266 263 260 256 253 252 252 250 248 245 243 241 239 238 238 238 238 240 241 242 243 244
317 315 312 310 308 306 304 302 299 297 295 292 290 287 284 282 279 277 275 272 270 267 264 261 258 254 251 250 249 248 246 244 242 239 238 238 238 239 239 240 240 241 242
315 313 311 310 308 305 303 301 298 296 294 292 290 287 285 282 279 277 275 272 269 267 265 262 259 256 252 250 248 247 246 244 242 239 237 237 237 237 238 238 238 239 240
313 312 310 308 306 304 302 300 298 296 294 292 290 287 285 282 279 276 273 271 269 266 264 262 259 256 253 250 247 246 245 243 242 239 237 236 236 235 235 236 236 237 239
312 310 309 307 305 303 302 300 298 296 294 292 290 288 285 283 280 276 272 269 267 264 262 260 258 256 253 251 248 245 243 243 241 240 238 236 235 235 234 234 234 235 237
311 310 309 307 305 304 302 300 298 296 294 291 289 287 284 282 280 277 273 268 265 262 260 258 256 254 252 250 248 245 243 242 241 239 238 236 234 234 234 233 234 235 236
312 310 309 308 306 305 303 301 299 296 294 292 291 289 287 284 282 279 276 272 266 261 257 255 253 251 250 248 246 245 243 241 240 239 238 236 234 233 233 233 233 234 235
313 312 311 309 308 306 305 303 301 299 297 296 294 292 289 286 284 280 278 274 269 264 258 254 250 248 247 246 244 243 242 240 239 238 238 236 235 233 232 232 232 233 235
315 314 313 311 310 308 306 304 303 302 300 298 296 293 290 286 283 280 277 273 269 264 259 254 249 246 244 242 241 240 239 238 237 237 237 236 236 234 232 230 230 231 233
317 316 315 313 312 310 308 307 306 305 303 300 296 293 289 286 283 280 277 274 270 266 260 253 248 245 242 240 238 237 237 236 236 236 235 235 236 235 234 231 228 229 231
319 318 317 316 313 312 311 310 308 306 303 299 296 292 289 286 283 280 277 274 270 267 264 258 250 244 240 238 236 235 234 234 234 234 234 234 234 235 234 233 230 228 228
321 320 318 316 315 314 313 311 309 306 303 300 296 293 289 285 282 279 275 273 269 267 264 261 256 248 240 236 235 233 232 232 232 232 233 233 233 233 234 233 232 229 227
322 321 319 318 318 317 316 314 313 310 308 305 302 298 294 289 284 279 275 271 268 265 262 261 259 254 247 239 235 231 230 229 229 230 231 231 231 231 231 232 232 230 227
324 322 322 321 321 321 320 319 318 316 314 312 308 305 300 295 289 283 277 271 267 263 260 259 258 257 253 246 238 233 229 228 227 227 228 230 230 230 230 230 231 231 229
326 325 325 325 325 324 324 323 322 321 319 317 314 310 306 301 296 290 282 275 267 262 259 257 256 256 255 252 246 237 231 227 226 224 226 227 229 229 228 228 228 229 228
328 327 328 329 328 327 327 326 325 324 323 321 318 315 310 306 300 295 289 281 272 264 258 255 253 253 253 253 250 244 235 229 225 224 223 225 226 227 228 228 227 227 227
329 330 331 331 331 330 329 328 327 326 325 323 321 318 314 311 305 299 292 285 278 268 259 254 251 250 251 251 252 249 241 233 227 223 221 222 224 225 226 227 227 227 227
Height
5869 5868 5867 5866 5866 5865 5865 5865 5864 5864 5863 5863 5863 5862 5862 5862 5862 5862 5861 5861 5861 5861 5861 5861 5861 5861 5862 5862 5862 5862 5863 5864 5865 5865 5867 5868 5869 5871 5873 5874 5875 5877 5879
5865 5865 5864 5863 5863 5862 5862 5861 5860 5860 5859 5858 5858 5857 5856 5856 5856 5856 5856 5856 5856 5856 5856 5856 5857 5857 5857 5858 5858 5859 5860 5861 5861 5862 5863 5865 5866 5868 5870 5872 5873 5875 5876
5862 5862 5861 5860 5859 5858 5857 5856 5855 5854 5853 5853 5852 5851 5851 5850 5850 5849 5849 5849 5850 5850 5850 5851 5851 5852 5852 5853 5853 5854 5855 5856 5857 5859 5860 5861 5862 5864 5866 5868 5870 5872 5874
5860 5859 5858 5856 5855 5854 5852 5851 5849 5848 5847 5845 5844 5844 5843 5843 5843 5842 5842 5842 5842 5843 5843 5844 5845 5845 5846 5847 5848 5849 5850 5851 5852 5854 5856 5857 5858 5860 5862 5864 5867 5869 5871
5858 5857 5855 5853 5851 5849 5847 5845 5843 5842 5840 5838 5837 5836 5835 5834 5834 5834 5834 5834 5834 5835 5835 5836 5837 5838 5839 5840 5841 5842 5844 5845 5847 5848 5851 5852 5854 5855 5857 5860 5862 5865 5867
5855 5853 5851 5849 5847 5845 5843 5840 5838 5835 5833 5831 5830 5828 5827 5826 5825 5825 5825 5825 5825 5826 5826 5827 5828 5829 5830 5832 5833 5835 5836 5838 5840 5842 5845 5847 5848 5850 5852 5855 5857 5860 5862
5852 5850 5848 5845 5843 5840 5837 5835 5832 5829 5826 5824 5822 5820 5818 5817 5816 5815 5815 5815 5815 5816 5817 5817 5818 5819 5821 5822 5824 5826 5828 5830 5832 5835 5837 5840 5842 5844 5846 5849 5851 5854 5857
5850 5847 5844 5841 5838 5835 5832 5829 5826 5823 5820 5817 5814 5812 5809 5807 5806 5805 5804 5804 5804 5805 5806 5807 5808 5809 5811 5812 5814 5816 5818 5820 5824 5827 5830 5832 5835 5837 5839 5842 5845 5848 5851
5847 5844 5840 5837 5833 5830 5826 5822 5818 5815 5811 5808 5805 5802 5800 5797 5795 5794 5793 5792 5792 5793 5793 5795 5797 5798 5800 5802 5803 5805 5808 5810 5814 5817 5820 5823 5827 5829 5832 5835 5838 5841 5844
5842 5838 5834 5830 5826 5821 5817 5812 5808 5804 5800 5797 5794 5791 5788 5786 5784 5782 5781 5780 5779 5779 5780 5782 5784 5785 5787 5790 5792 5794 5796 5799 5803 5807 5810 5814 5817 5820 5824 5828 5831 5834 5837
5835 5830 5826 5821 5816 5810 5805 5800 5795 5790 5785 5782 5778 5776 5773 5771 5769 5768 5767 5766 5766 5765 5766 5767 5769 5771 5773 5776 5779 5782 5785 5788 5791 5795 5799 5803 5807 5811 5815 5818 5822 5826 5829
5828 5822 5816 5810 5805 5798 5792 5786 5780 5775 5770 5765 5761 5758 5756 5753 5751 5750 5749 5749 5749 5750 5751 5752 5754 5756 5758 5761 5765 5768 5772 5776 5779 5783 5788 5792 5796 5800 5804 5808 5812 5816 5820
5819 5813 5806 5799 5792 5785 5778 5771 5764 5758 5752 5746 5740 5736 5734 5732 5731 5730 5729 5729 5730 5731 5734 5736 5737 5739 5742 5746 5749 5753 5757 5762 5766 5770 5775 5781 5785 5789 5793 5797 5801 5806 5811
5810 5802 5794 5786 5778 5770 5761 5753 5745 5737 5731 5724 5718 5713 5710 5708 5706 5706 5705 5706 5707 5710 5713 5716 5718 5721 5725 5729 5732 5736 5741 5746 5751 5757 5762 5768 5773 5777 5782 5787 5791 5796 5801
5799 5790 5780 5771 5762 5752 5743 5734 5725 5716 5708 5701 5695 5689 5685 5682 5679 5678 5678 5680 5682 5685 5689 5693 5696 5701 5706 5710 5714 5720 5725 5730 5735 5741 5747 5753 5759 5764 5770 5776 5781 5786 5791
5785 5775 5765 5754 5743 5732 5722 5712 5702 5693 5684 5675 5668 5661 5657 5654 5651 5650 5649 5650 5653 5658 5662 5667 5671 5678 5683 5689 5695 5701 5708 5713 5719 5725 5731 5737 5744 5750 5756 5763 5770 5775 5780
5771 5760 5748 5736 5724 5712 5701 5689 5677 5667 5658 5649 5641 5634 5630 5626 5624 5622 5622 5622 5624 5628 5633 5639 5645 5652 5659 5666 5674 5681 5688 5696 5702 5708 5715 5721 5728 5735 5741 5749 5756 5763 5769
5755 5743 5730 5718 5705 5692 5679 5666 5654 5643 5633 5624 5617 5611 5606 5602 5600 5598 5597 5597 5598 5601 5605 5610 5617 5625 5633 5642 5651 5659 5667 5676 5684 5691 5698 5705 5713 5720 5726 5734 5742 5750 5757
5739 5726 5712 5699 5685 5672 5658 5645 5633 5622 5612 5604 5597 5592 5587 5583 5580 5578 5577 5576 5576 5577 5579 5583 5589 5596 5606 5615 5625 5635 5645 5655 5665 5674 5682 5690 5697 5704 5711 5718 5727 5736 5744
5723 5708 5694 5679 5665 5651 5638 5626 5614 5604 5594 5586 5579 5573 5568 5564 5561 5559 5558 5557 5557 5557 5557 5559 5563 5570 5578 5587 5598 5610 5622 5634 5644 5654 5664 5673 5681 5689 5697 5704 5712 5722 5731
5707 5692 5677 5661 5646 5632 5620 5608 5598 5588 5578 5569 5561 5554 5549 5545 5542 5540 5539 5539 5538 5538 5539 5539 5542 5546 5552 5560 5571 5585 5599 5611 5622 5633 5643 5654 5664 5673 5682 5690 5698 5707 5716
5692 5675 5659 5643 5628 5615 5602 5590 5578 5568 5558 5549 5541 5534 5528 5524 5521 5519 5518 5518 5519 5520 5521 5522 5523 5526 5531 5536 5545 5558 5573 5587 5596 5611 5622 5634 5645 5656 5665 5674 5683 5692 5701
5677 5660 5643 5627 5613 5599 5586 5574 5564 5554 5544 5535 5527 5518 5511 5505 5501 5498 5497 5497 5498 5500 5502 5504 5506 5509 5512 5516 5521 5531 5545 5558 5574 5589 5601 5614 5624 5635 5647 5657 5668 5677 5686
5662 5645 5628 5613 5598 5585 5572 5561 5550 5539 5530 5521 5512 5504 5496 5489 5484 5480 5477 5476 5477 5479 5482 5486 5489 5492 5495 5499 5502 5508 5519 5532 5548 5565 5579 5592 5603 5616 5628 5640 5651 5661 5671
5647 5631 5615 5600 5587 5574 5560 5549 5538 5527 5516 5507 5498 5489 5482 5475 5469 5464 5460 5458 5458 5459 5462 5466 5470 5474 5478 5481 5485 5489 5496 5507 5522 5540 5557 5569 5582 5597 5609 5621 5633 5644 5656
5635 5619 5604 5590 5577 5564 5551 5538 5527 5516 5505 5495 5485 5476 5469 5461 5455 5449 5445 5442 5440 5440 5442 5446 5452 5457 5461 5464 5468 5471 5476 5485 5499 5514 5533 5547 5561 5578 5591 5603 5616 5629 5640